Date String (YYYY-MM-DD hh:mm:ss) UTC,Instrument flags,Ambient pressure (hPa),Sample flow (lpm),Bypass flow (lpm),Sample temperature (°C),Ambient temperature (°C),ASC tube jacket temperature (°C),LED temperature (°C),Box temperature (°C),Sample RH (%),Span deviation,Mass concentration (μg/m³),Mass concentration (μg/m³),Mass concentration (μg/m³)
DateTimeUTC,F1_M11,P_M11,Q1_M11,Q2_M11,T1_M11,T2_M11,T3_M11,T4_M11,T5_M11,U1_M11,ZSPAN_M11,X0_M11,X2_M11,X1_M11
2021-10-02 10:00:00,,0832.1,4.99,0.00,30.0,29.1,00.0,39.1,31.7,19.5,0001.9,0012.94,0007.25,0006.56
2021-10-02 10:01:00,,0832.1,5.00,0.00,30.0,29.1,00.0,39.1,31.7,19.5,0001.8,0013.04,0007.33,0006.61
2021-10-02 10:02:00,,0832.0,5.00,0.00,30.0,29.1,00.0,39.1,31.7,19.5,0002.2,0013.12,0007.43,0006.65
2021-10-02 10:03:00,,0832.1,5.00,0.00,30.0,29.1,00.0,39.1,31.7,19.5,0002.2,0013.27,0007.48,0006.67
2021-10-02 10:04:00,,0832.1,4.99,0.00,30.0,29.1,00.0,39.1,31.7,19.5,0002.4,0013.61,0007.50,0006.67
2021-10-02 10:05:00,,0832.1,5.00,0.00,30.0,29.1,00.0,39.1,31.8,19.4,0002.3,0014.20,0007.46,0006.66
2021-10-02 10:06:00,,0832.1,4.99,0.00,30.0,29.1,00.0,39.1,31.8,19.4,0002.4,0014.37,0007.46,0006.66
2021-10-02 10:07:00,,0832.1,5.00,0.00,30.0,29.1,00.0,39.1,31.8,19.4,0002.4,0014.86,0007.51,0006.67
2021-10-02 10:08:00,,0832.1,5.00,0.00,30.0,29.1,00.0,39.1,31.7,19.4,0002.3,0015.16,0007.58,0006.69
2021-10-02 10:09:00,,0832.1,5.01,0.00,30.0,29.1,00.0,39.1,31.8,19.5,0002.2,0015.00,0007.57,0006.72
2021-10-02 10:10:00,,0832.1,4.99,0.00,30.0,29.1,00.0,39.1,31.8,19.4,0001.9,0013.97,0007.56,0006.71
2021-10-02 10:11:00,,0832.1,5.01,0.00,30.0,29.1,00.0,39.1,31.8,19.4,0002.0,0014.15,0007.59,0006.72
2021-10-02 10:12:00,,0832.1,4.99,0.00,30.0,29.1,00.0,39.1,31.8,19.3,0002.0,0014.10,0007.54,0006.71
2021-10-02 10:13:00,,0832.1,5.01,0.00,30.0,29.1,00.0,39.1,31.8,19.3,0001.8,0014.31,0007.51,0006.70
2021-10-02 10:14:00,,0832.1,5.01,0.00,30.0,29.1,00.0,39.1,31.7,19.4,0001.7,0014.25,0007.49,0006.71
2021-10-02 10:15:00,,0832.1,4.99,0.00,30.0,29.1,00.0,39.1,31.8,19.4,0001.6,0014.12,0007.51,0006.74
2021-10-02 10:16:00,,0832.1,5.01,0.00,30.0,29.1,00.0,39.1,31.7,19.3,0001.7,0013.74,0007.56,0006.76
2021-10-02 10:17:00,,0832.1,5.00,0.00,30.0,29.1,00.0,39.1,31.7,19.2,0001.6,0013.41,0007.54,0006.73
2021-10-02 10:18:00,,0832.1,4.99,0.00,30.0,29.1,00.0,39.1,31.7,19.2,0001.5,0013.04,0007.47,0006.70
2021-10-02 10:19:00,,0832.1,5.01,0.00,30.0,29.0,00.0,39.1,31.7,19.1,0001.5,0012.84,0007.40,0006.65
2021-10-02 10:20:00,,0832.0,5.01,0.00,30.0,29.0,00.0,39.1,31.7,19.1,0001.6,0012.76,0007.34,0006.60
2021-10-02 10:21:00,,0832.1,4.99,0.00,30.0,29.0,00.0,39.1,31.7,19.1,0001.5,0013.24,0007.28,0006.58
2021-10-02 10:22:00,,0832.0,5.01,0.00,30.0,29.0,00.0,39.1,31.7,19.1,0001.5,0013.88,0007.25,0006.53
2021-10-02 10:23:00,,0832.1,4.99,0.00,30.0,29.0,00.0,39.1,31.7,19.1,0001.5,0014.37,0007.21,0006.48
2021-10-02 10:24:00,,0832.1,5.00,0.00,30.0,29.0,00.0,39.1,31.7,19.1,0001.2,0014.25,0007.14,0006.43
2021-10-02 10:25:00,,0832.1,5.01,0.00,30.0,29.0,00.0,39.1,31.7,19.1,0001.3,0013.92,0007.06,0006.37
2021-10-02 10:26:00,,0832.1,5.00,0.00,30.0,29.0,00.0,39.1,31.7,19.1,0001.4,0013.96,0007.01,0006.31
2021-10-02 10:27:00,,0832.1,5.02,0.00,30.0,29.0,00.0,39.1,31.7,19.1,0001.5,0013.78,0006.93,0006.23
2021-10-02 10:28:00,,0832.1,5.00,0.00,30.0,29.0,00.0,39.1,31.7,19.1,0001.5,0013.87,0006.92,0006.19
2021-10-02 10:29:00,,0832.1,4.99,0.00,30.0,29.0,00.0,39.1,31.7,19.1,0001.7,0014.63,0006.89,0006.15
2021-10-02 10:30:00,,0832.1,4.99,0.00,30.0,29.0,00.0,39.1,31.6,19.1,0001.5,0014.55,0006.86,0006.13
2021-10-02 10:31:00,,0832.1,4.99,0.00,30.0,29.0,00.0,39.1,31.7,19.1,0001.5,0014.44,0006.86,0006.09
2021-10-02 10:32:00,,0832.1,5.01,0.00,29.9,29.0,00.0,39.1,31.7,19.1,0001.6,0013.89,0006.86,0006.06
2021-10-02 10:33:00,,0832.1,5.01,0.00,29.9,28.9,00.0,39.1,31.6,19.1,0001.5,0013.32,0006.81,0006.03
2021-10-02 10:34:00,,0832.1,4.99,0.00,29.9,28.9,00.0,39.1,31.6,19.1,0001.5,0013.17,0006.81,0006.01
2021-10-02 10:35:00,,0832.1,5.01,0.00,29.9,28.9,00.0,39.1,31.6,19.1,0001.7,0012.86,0006.78,0005.99
2021-10-02 10:36:00,,0832.1,4.99,0.00,29.9,28.9,00.0,39.1,31.6,19.1,0001.6,0013.18,0006.78,0005.97
2021-10-02 10:37:00,,0832.1,4.98,0.00,29.9,28.9,00.0,39.1,31.6,19.1,0001.5,0013.14,0006.74,0005.95
2021-10-02 10:38:00,,0832.2,5.01,0.00,29.9,28.9,00.0,39.1,31.6,19.1,0001.2,0013.33,0006.73,0005.95
2021-10-02 10:39:00,,0832.2,5.00,0.00,29.9,28.9,00.0,39.1,31.6,19.1,0001.1,0013.12,0006.67,0005.95
2021-10-02 10:40:00,,0832.2,5.01,0.00,29.9,28.9,00.0,39.1,31.6,19.1,0001.3,0012.31,0006.69,0005.95
2021-10-02 10:41:00,,0832.1,5.00,0.00,29.9,28.9,00.0,39.1,31.6,19.1,0001.7,0012.44,0006.71,0005.94
2021-10-02 10:42:00,,0832.2,4.99,0.00,29.9,28.9,00.0,39.1,31.5,19.0,0001.8,0012.66,0006.69,0005.94
2021-10-02 10:43:00,,0832.2,4.99,0.00,29.9,28.9,00.0,39.1,31.6,19.0,0001.6,0012.61,0006.65,0005.93
2021-10-02 10:44:00,,0832.2,5.01,0.00,29.9,28.9,00.0,39.0,31.6,19.0,0001.8,0012.84,0006.64,0005.92
2021-10-02 10:45:00,,0832.2,5.00,0.00,29.9,28.9,00.0,39.0,31.6,19.0,0001.9,0012.46,0006.64,0005.93
2021-10-02 10:46:00,,0832.3,5.00,0.00,29.9,28.9,00.0,39.0,31.5,19.1,0001.9,0012.39,0006.64,0005.92
2021-10-02 10:47:00,,0832.3,5.01,0.00,29.8,28.9,00.0,39.0,31.5,19.1,0002.1,0012.10,0006.63,0005.93
2021-10-02 10:48:00,,0832.3,4.99,0.00,29.8,28.8,00.0,39.0,31.5,19.1,0002.2,0011.78,0006.61,0005.91
2021-10-02 10:49:00,,0832.3,5.00,0.00,29.8,28.8,00.0,39.0,31.5,19.1,0002.1,0012.29,0006.58,0005.90
2021-10-02 10:50:00,,0832.3,4.99,0.00,29.8,28.8,00.0,39.0,31.5,19.1,0002.4,0012.26,0006.59,0005.90
2021-10-02 10:51:00,,0832.3,5.00,0.00,29.8,28.8,00.0,39.0,31.5,19.1,0002.0,0012.18,0006.57,0005.90
2021-10-02 10:52:00,,0832.3,5.00,0.00,29.8,28.8,00.0,39.0,31.5,19.1,0001.8,0012.39,0006.56,0005.90
2021-10-02 10:53:00,,0832.3,4.99,0.00,29.8,28.8,00.0,39.0,31.5,19.1,0001.5,0012.92,0006.56,0005.90
2021-10-02 10:54:00,,0832.3,5.00,0.00,29.8,28.8,00.0,39.0,31.5,19.1,0001.7,0013.42,0006.61,0005.92
2021-10-02 10:55:00,,0832.3,4.99,0.00,29.8,28.8,00.0,39.0,31.5,19.2,0001.7,0013.38,0006.63,0005.94
2021-10-02 10:56:00,,0832.3,5.00,0.00,29.8,28.8,00.0,39.0,31.5,19.2,0001.8,0013.97,0006.61,0005.95
2021-10-02 10:57:00,,0832.2,5.01,0.00,29.8,28.8,00.0,39.0,31.4,19.2,0002.0,0014.45,0006.66,0005.98
2021-10-02 10:58:00,,0832.3,5.00,0.00,29.8,28.8,00.0,39.0,31.4,19.2,0001.9,0014.49,0006.69,0006.00
2021-10-02 10:59:00,,0832.3,5.00,0.00,29.8,28.8,00.0,39.0,31.5,19.2,0001.7,0014.80,0006.76,0006.03
